Regional Weather Roundup
Issued by NWS

Home | Current Version | Previous Version | Graphics & Text | Print | Product List | Glossary On
Versions: 1 2 3 4 5 6 7 8 9 10 11 12 13 14 15 16 17 18 19 20 21 22 23 24 25 26 27 28 29 30 31 32 33 34 35 36 37 38 39 40 41 42 43 44 45 46 47 48 49 50
000
ASUS44 KMEG 300410
RWRTN
TENNESSEE HOURLY STATE WEATHER ROUNDUP
NATIONAL WEATHER SERVICE MEMPHIS TN
1100 PM CDT FRI JUL 29 2016

TNZ002-004-019-021-049-052-054-088>092-300500-
WEST TENNESSEE

CITY           SKY/WX    TMP DP  RH WIND       PRES   REMARKS
MEMPHIS INTL   PTCLDY    73  70  90 S5        29.97R
NWS MEMPHIS      N/A     72 N/A N/A MISG        N/A
JACKSON        MOCLDY    73  73 100 SW5       29.96S
DYERSBURG      PTCLDY   N/A N/A N/A MISG        N/A
UNION CITY     CLEAR     72  72 100 CALM      29.94S
PARIS          CLEAR     70  68  94 S3        29.95S
LEXINGTON      CLEAR     72  72 100 SW5       29.96R
$$

TNZ008-025-027-028-033-062-065-066-300500-
NORTH MIDDLE TENNESSEE

CITY           SKY/WX    TMP DP  RH WIND       PRES   REMARKS
NASHVILLE      CLOUDY    76  69  79 SW8       29.97F
CLARKSVILLE    CLOUDY    74  72  93 CALM      29.94F
SMYRNA         LGT RAIN  73  71  93 CALM      29.98F
COOKEVILLE     PTCLDY    75  73  94 S3        29.99S
CROSSVILLE     CLOUDY    72  68  87 VRB5      30.06F
$$

TNZ061-075-076-078-094-096-097-300500-
SOUTH MIDDLE TENNESSEE

CITY           SKY/WX    TMP DP  RH WIND       PRES   REMARKS
FAYETTEVILLE   PTCLDY    77  72  83 NW5       30.01S
TULLAHOMA      PTCLDY    75  66  73 CALM      30.03S
WINCHESTER     CLEAR     75  72  88 CALM      30.02F
MCMINNVILLE    MOCLDY    77  77 100 W6        30.01S
COLUMBIA       MOCLDY   N/A N/A N/A S3        29.97F
SHELBYVILLE    PTCLDY    73  72  94 NW5       30.02F
$$

TNZ017-018-042-046-047-300500-
NORTHEAST TENNESSEE

CITY           SKY/WX    TMP DP  RH WIND       PRES   REMARKS
TRI CITIES     PTCLDY    70  68  93 CALM      30.04S
ELIZABETHTON   PTCLDY    70  68  94 CALM      30.05R
$$

TNZ012-013-036-069-073-074-300500-
CENTRAL EAST TENNESSEE

CITY           SKY/WX    TMP DP  RH WIND       PRES   REMARKS
KNOXVILLE      PTCLDY    74  71  91 CALM      30.01F
OAK RIDGE      CLOUDY    76  71  85 S3        30.02F
GATLINBURG     CLEAR     72  70  94 CALM      30.01F
MORRISTOWN     MOCLDY    72  70  94 CALM      30.03S
$$

TNZ083-085-099-300500-
SOUTHEAST TENNESSEE

CITY           SKY/WX    TMP DP  RH WIND       PRES   REMARKS
CHATTANOOGA    CLOUDY    79  69  71 SE5       30.01S
$$

SKY/WX REPORTED AS FAIR MEANS FEW OR NO CLOUDS BELOW
12 THOUSAND FEET.





USA.gov is the U.S. government's official web portal to all federal, state and local government web resources and services.